Погода в Албани

Австралия     35°00′34″S   117°53′03″E
темп.,
°C
ветер,
м/с
пор.,
м/с
влажн.,
%
обл.,
%
осадки,
мм/ч
давл.,
гПа
погр.,
м
12 мая, ср
ср1223:00+18ссз41158100 0.0 1014292
02:00+18з51268100 0.1 1015577
05:00+17ююз101187100 0.8 1017840
08:00+15ююз91082100 1.5 10211040
11:00+15ююз9106044 0.1 10241506
14:00+15ююз795210 0.1 10241722
17:00+14ю7856100 0.0 10261168
20:00+14ююв4659100 0.0 1028904
13 мая, чт
чт1323:00+14ююв5656100 0.0 1028954
02:00+14ююв4562100 0.0 1028798
05:00+14юв5666100 0.1 1029796
08:00+15юв5667100 0.1 1030957
11:00+16вюв5666100 0.1 10301155
14:00+16в4563100 0.3 10291133
17:00+15в356999 0.1 1029536
20:00+15в4666100 0.1 1029613
14 мая, пт
пт1423:00+14всв2471100 0.0 1030438
02:00+14в36746 0.1 1028478
05:00+13св248198 0.1 1028418
08:00+14всв358058 0.2 1029489
11:00+17в567399 0.4 10291191
14:00+17в6774100 1.0 1027965
17:00+16в7981100 0.6 1028800
20:00+16в7107999 0.9 1029965
15 мая, сб
сб1523:00+16всв7108193 0.4 1028841
02:00+15св488842 0.9 1027513
05:00+13св488889 0.3 1027247
08:00+13св4108224 0.3 1028304
11:00+18св585598 0.0 1027767
14:00+20всв565089 0.0 10251208
17:00+17всв686581 0.0 1025469
20:00+16св6107495 0.0 1025476
16 мая, вс
вс1623:00+16св61275100 0.0 1025473
02:00+16св51067100 0.0 1024309
05:00+16ссв41160100 0.0 1023335
08:00+16ссв41158100 0.0 1023352
11:00+17с4956100 0.0 1023475
14:00+17ссв3758100 0.0 1020259
17:00+18с3457100 0.0 1020156
20:00+18ссв3754100 0.0 1020201